Le nostre stazioni meteo in Italia

Pubblicità
Il mio iltempo24.it
Cozzo Spadaro, Italia (16480): Temperatura & dewpoint: 19.04.2018 20:00:00 - 25.04.2018 20:00:00 (CEST)Cozzo Spadaro, Italia (16480): velocità del vento: 19.04.2018 20:00:00 - 25.04.2018 20:00:00 (CEST)Cozzo Spadaro, Italia (16480): direzione del vento: 19.04.2018 20:00:00 - 25.04.2018 20:00:00 (CEST)Cozzo Spadaro, Italia (16480): reduced air pressure: 19.04.2018 20:00:00 - 25.04.2018 20:00:00 (CEST)Cozzo Spadaro, Italia (16480): visibility: 19.04.2018 20:00:00 - 25.04.2018 20:00:00 (CEST)Cozzo Spadaro, Italia (16480): ore di luce: 19.04.2018 20:00:00 - 25.04.2018 20:00:00 (CEST)
Data & Tempo tt [°C] td [°C] ff [km/h] ff [kn] dd ppp [hPa] vv [km] sd [min]
25.04.2018 20:00:00 19,6 17,0 8 4 OSO 1015,8 20 -
25.04.2018 19:00:00 21,0 16,0 9 5 OSO 1015,8 25 -
25.04.2018 18:00:00 21,0 15,3 13 7 OSO 1015,8 25 -
25.04.2018 17:00:00 21,4 15,5 13 7 OSO 1015,9 25 -
25.04.2018 16:00:00 21,6 13,8 11 6 SO 1016,0 25 -
25.04.2018 15:00:00 21,4 13,6 13 7 SO 1017,0 25 -
25.04.2018 14:00:00 21,4 14,8 11 6 SO 1017,3 25 60
25.04.2018 13:00:00 21,4 15,2 9 5 SO 1017,8 25 60
25.04.2018 12:00:00 21,2 15,1 9 5 SO 1017,9 25 60
25.04.2018 11:00:00 21,0 12,7 8 4 SO 1017,2 25 60
25.04.2018 10:00:00 20,2 13,9 4 2 SO 1017,2 20 60
25.04.2018 09:00:00 18,2 12,9 2 1 O 1017,2 20 54
25.04.2018 08:00:00 17,6 11,2 2 1 OSO 1017,1 20 36
25.04.2018 07:00:00 - - - - - - - -
25.04.2018 06:00:00 - - - - - - - -
25.04.2018 05:00:00 - - - - - - - -
25.04.2018 04:00:00 - - - - - - - -
25.04.2018 03:00:00 - - - - - - - -
25.04.2018 02:00:00 - - - - - - - -
25.04.2018 01:00:00 - - - - - - - -
25.04.2018 00:00:00 - - - - - - - -
24.04.2018 23:00:00 - - - - - - - -
24.04.2018 22:00:00 - - - - - - - -
24.04.2018 21:00:00 - - - - - - - -
24.04.2018 20:00:00 19,8 17,4 11 6 OSO 1017,1 18 0
24.04.2018 19:00:00 20,6 18,0 9 5 OSO 1017,0 25 54
24.04.2018 18:00:00 20,4 16,0 11 6 OSO 1017,2 25 60
24.04.2018 17:00:00 21,0 14,2 11 6 NE 1017,8 20 60
24.04.2018 16:00:00 21,0 13,7 11 6 OSO 1018,0 25 60
24.04.2018 15:00:00 21,0 16,6 11 6 OSO 1018,1 25 60
24.04.2018 14:00:00 20,8 16,4 11 6 OSO 1018,5 25 60
24.04.2018 13:00:00 20,6 16,0 9 5 SO 1018,9 25 60
24.04.2018 12:00:00 20,4 15,0 8 4 SO 1019,0 25 60
24.04.2018 11:00:00 20,2 14,6 8 4 SO 1018,8 20 60
24.04.2018 10:00:00 20,0 15,4 5 3 SO 1018,1 25 60
24.04.2018 09:00:00 18,8 14,9 4 2 O 1018,0 25 60
24.04.2018 08:00:00 16,8 13,7 0 0 N 1017,6 25 48
24.04.2018 07:00:00 - - - - - - - -
24.04.2018 06:00:00 - - - - - - - -
24.04.2018 05:00:00 - - - - - - - -
24.04.2018 04:00:00 - - - - - - - -
24.04.2018 03:00:00 - - - - - - - -
24.04.2018 02:00:00 - - - - - - - -
24.04.2018 01:00:00 - - - - - - - -
24.04.2018 00:00:00 - - - - - - - -
23.04.2018 23:00:00 - - - - - - - -
23.04.2018 22:00:00 - - - - - - - -
23.04.2018 21:00:00 - - - - - - - -
23.04.2018 20:00:00 20,4 17,4 5 3 O 1016,4 18 0
23.04.2018 19:00:00 20,6 16,2 5 3 OSO 1016,4 25 54
23.04.2018 18:00:00 20,8 17,0 5 3 OSO 1016,9 25 60
23.04.2018 17:00:00 21,0 16,8 5 3 SO 1017,0 25 60
23.04.2018 16:00:00 21,0 16,8 4 2 SSO 1017,1 25 60
23.04.2018 15:00:00 21,2 16,8 8 4 S 1017,5 25 60
23.04.2018 14:00:00 21,0 17,0 8 4 SE 1017,8 25 60
23.04.2018 13:00:00 21,2 16,2 8 4 SSE 1018,0 25 60
23.04.2018 12:00:00 21,4 15,7 5 3 SSE 1018,0 25 60
23.04.2018 11:00:00 19,6 11,9 4 2 E 1017,3 25 60
23.04.2018 10:00:00 18,6 16,0 8 4 ENE 1017,1 20 60
23.04.2018 09:00:00 18,4 14,5 5 3 NE 1017,1 25 60
23.04.2018 08:00:00 17,0 11,9 0 0 N 1016,8 25 48
23.04.2018 07:00:00 - - - - - - - -
23.04.2018 06:00:00 - - - - - - - -
23.04.2018 05:00:00 - - - - - - - -
23.04.2018 04:00:00 - - - - - - - -
23.04.2018 03:00:00 - - - - - - - -
23.04.2018 02:00:00 - - - - - - - -
23.04.2018 01:00:00 - - - - - - - -
23.04.2018 00:00:00 - - - - - - - -
22.04.2018 23:00:00 - - - - - - - -
22.04.2018 22:00:00 - - - - - - - -
22.04.2018 21:00:00 - - - - - - - -
22.04.2018 20:00:00 18,4 14,5 0 0 N 1017,1 7 0
22.04.2018 19:00:00 19,0 13,8 0 0 N 1017,1 8 0
22.04.2018 18:00:00 19,2 14,2 5 3 NO 1017,1 8 18
22.04.2018 17:00:00 19,2 16,4 5 3 NO 1017,2 4,0 30
22.04.2018 16:00:00 19,2 16,8 4 2 O 1017,7 8 0
22.04.2018 15:00:00 19,2 16,2 8 4 O 1017,9 8 0
22.04.2018 14:00:00 19,4 15,5 8 4 SSO 1018,1 8 36
22.04.2018 13:00:00 19,4 16,8 8 4 S 1018,3 7 60
22.04.2018 12:00:00 19,0 16,8 5 3 SSO 1018,4 7 60
22.04.2018 11:00:00 19,2 16,6 5 3 SE 1018,3 7 60
22.04.2018 10:00:00 18,4 16,0 4 2 SE 1018,0 7 60
22.04.2018 09:00:00 16,8 14,8 2 1 E 1017,9 6 42
22.04.2018 08:00:00 15,6 13,6 0 0 N 1017,6 6 0
22.04.2018 07:00:00 - - - - - - - -
22.04.2018 06:00:00 - - - - - - - -
22.04.2018 05:00:00 - - - - - - - -
22.04.2018 04:00:00 - - - - - - - -
22.04.2018 03:00:00 - - - - - - - -
22.04.2018 02:00:00 - - - - - - - -
22.04.2018 01:00:00 - - - - - - - -
22.04.2018 00:00:00 - - - - - - - -
21.04.2018 23:00:00 - - - - - - - -
21.04.2018 22:00:00 - - - - - - - -
21.04.2018 21:00:00 - - - - - - - -
21.04.2018 20:00:00 17,6 15,8 13 7 OSO 1017,0 12 0
21.04.2018 19:00:00 18,6 17,1 11 6 OSO 1017,1 12 54
21.04.2018 18:00:00 19,4 17,0 11 6 OSO 1017,6 14 60
21.04.2018 17:00:00 19,4 17,5 9 5 SO 1017,8 14 60
21.04.2018 16:00:00 19,8 16,2 9 5 SSO 1018,0 14 60
21.04.2018 15:00:00 19,6 14,2 11 6 SO 1018,0 16 60
21.04.2018 14:00:00 19,8 15,3 13 7 OSO 1018,0 16 60
21.04.2018 13:00:00 19,8 15,2 9 5 SO 1018,1 16 60
21.04.2018 12:00:00 19,8 15,2 8 4 SO 1018,1 16 60
21.04.2018 11:00:00 19,6 14,4 9 5 O 1017,9 10 60
21.04.2018 10:00:00 19,2 14,9 9 5 O 1017,4 16 60
21.04.2018 09:00:00 18,8 13,9 4 2 O 1017,2 16 54
21.04.2018 08:00:00 16,8 14,3 5 3 NNO 1017,2 12 0
21.04.2018 07:00:00 - - - - - - - -
21.04.2018 06:00:00 - - - - - - - -
21.04.2018 05:00:00 - - - - - - - -
21.04.2018 04:00:00 - - - - - - - -
21.04.2018 03:00:00 - - - - - - - -
21.04.2018 02:00:00 - - - - - - - -
21.04.2018 01:00:00 - - - - - - - -
21.04.2018 00:00:00 - - - - - - - -
20.04.2018 23:00:00 - - - - - - - -
20.04.2018 22:00:00 - - - - - - - -
20.04.2018 21:00:00 - - - - - - - -
20.04.2018 20:00:00 19,6 15,7 9 5 ONO 1016,2 16 0
20.04.2018 19:00:00 19,8 14,6 13 7 O 1016,2 20 42
20.04.2018 18:00:00 20,0 13,5 9 5 O 1016,5 20 60
20.04.2018 17:00:00 20,2 13,4 8 4 O 1016,9 20 60
20.04.2018 16:00:00 19,2 12,9 5 3 SO 1017,2 20 60
20.04.2018 15:00:00 20,2 13,7 11 6 ESE 1017,5 20 60
20.04.2018 14:00:00 20,2 13,4 8 4 E 1018,4 20 60
20.04.2018 13:00:00 20,0 14,4 9 5 NE 1018,5 18 60
20.04.2018 12:00:00 19,8 15,9 13 7 NE 1019,0 15 60
20.04.2018 11:00:00 19,4 15,9 15 8 NE 1018,7 10 60
20.04.2018 10:00:00 18,8 15,3 16 9 NE 1018,2 10 60
20.04.2018 09:00:00 18,0 15,4 16 9 NE 1018,0 10 54
20.04.2018 08:00:00 17,0 14,8 15 8 NE 1018,1 10 0
20.04.2018 07:00:00 - - - - - - - -
20.04.2018 06:00:00 - - - - - - - -
20.04.2018 05:00:00 - - - - - - - -
20.04.2018 04:00:00 - - - - - - - -
20.04.2018 03:00:00 - - - - - - - -
20.04.2018 02:00:00 - - - - - - - -
20.04.2018 01:00:00 - - - - - - - -
20.04.2018 00:00:00 - - - - - - - -
19.04.2018 23:00:00 - - - - - - - -
19.04.2018 22:00:00 - - - - - - - -
19.04.2018 21:00:00 - - - - - - - -
19.04.2018 20:00:00 17,0 15,4 11 6 ENE 1020,1 8 0

tt = Temperatura
td = dewpoint
ff = velocità del vento
dd = direzione del vento
ppp = reduced air pressure
vv = visibility
sd = ore di luce

Stazioni seguenti

WeatherPro
AMSI
MeteoEarth